Hourly Data Report for October 25, 2013

All times are specified in Local Standard Time (LST). Add 1 hour to adjust for Daylight Saving Time where and when it is observed.

GJOA HAVEN A
NUNAVUT

68°38'08.000" N
95°51'01.000" W
46.90 m
2302337
71597
YHK

Download Data

Hourly Data (October 2013)
Hourly Data Report for October 25, 2013
Temp Definition
°C
Dew Point Temp Definition
°C
Rel Hum Definition
%
Wind Dir Definition
10's deg

Wind Spd Definition
km/h
Visibility Definition
km
Stn Press Definition
kPa
Hmdx Definition


Wind Chill Definition


Weather Definition


TIME
00:00 Legend Double Dagger -6.8 -7.3 96 29 30 9.7 99.94   -15 LegendNANA
01:00 Legend Double Dagger -7.4 -8.1 95 29 24 16.1 99.94   -15 LegendNANA
02:00 Legend Double Dagger -7.5 -8.2 95 28 30 16.1 99.92   -16 LegendNANA
03:00 Legend Double Dagger -7.2 -7.7 96 28 30 9.7 99.91   -16 LegendNANA
04:00 Legend Double Dagger -7.7 -8.4 95 29 24 6.4 99.93   -16 LegendNANA
05:00 Legend Double Dagger -7.0 -7.5 96 29 26 3.2 99.93   -15 LegendNANA
06:00 Legend Double Dagger -6.1 -6.6 96 30 30 16.1 99.94   -14 LegendNANA
07:00 Legend Double Dagger -7.1 -7.8 95 31 22 16.1 99.97   -15 LegendNANA
08:00 Legend Double Dagger -6.2 -6.7 96 31 24 11.3 100.00   -14 LegendNANA
09:00 Legend Double Dagger -6.9 -7.6 95 32 24 16.1 100.02   -15 LegendNANA
10:00 Legend Double Dagger -7.2 -7.9 95 30 33 9.7 100.06   -16 LegendNANA
11:00 Legend Double Dagger -8.0 -8.8 94 30 35 4.8 100.10   -18 LegendNANA
12:00 Legend Double Dagger -9.1 -10.0 93 30 35 4.8 100.13   -19 LegendNANA
13:00 Legend Double Dagger -10.1 -11.2 92 31 26 16.1 100.17   -19 LegendNANA
14:00 Legend Double Dagger -10.6 -11.7 92 31 30 11.3 100.20   -20 LegendNANA
15:00 Legend Double Dagger -10.2 -11.4 91 30 30 12.9 100.20   -20 LegendNANA
16:00 Legend Double Dagger -10.0 -11.1 92 31 22 16.1 100.21   -18 LegendNANA
17:00 Legend Double Dagger -9.8 -10.9 92 31 22 16.1 100.20   -18 LegendNANA
18:00 Legend Double Dagger -10.3 -11.4 92 30 28 16.1 100.17   -20 LegendNANA
19:00 Legend Double Dagger -10.6 -11.7 92 31 21 16.1 100.19   -19 LegendNANA
20:00 Legend Double Dagger -10.5 -11.6 92 32 24 12.9 100.15   -19 LegendNANA
21:00 Legend Double Dagger -10.6 -11.7 92 31 17 4.8 100.13   -18 LegendNANA
22:00 Legend Double Dagger -10.0 -11.1 92 32 17 12.9 100.15   -17 LegendNANA
23:00 Legend Double Dagger -9.6 -10.7 92 32 21 16.1 100.17   -18 LegendNANA

Notes on Data Quality.

Legend

  • E = Estimated
  • M = Missing
  • NA = Not Available
  • ‡ = Partner data that is not subject to review by the National Climate Archives
Date modified: